Weather History for KOEB - October, 2014

Change the Weather History Date:

Thursday, October 30, 2014

  Actual Average (KJYM) Record (KJYM)
Temperature  
Mean Temperature 46 °F -  
Max Temperature 49 °F 55 °F 76 °F (1950)
Min Temperature 42 °F 33 °F 15 °F (1966)
Degree Days  
Heating Degree Days 20    
Moisture  
Dew Point 39 °F    
Average Humidity 77    
Maximum Humidity 93    
Minimum Humidity 61    
Precipitation  
Precipitation 0.00 in - - ()
Sea Level Pressure  
Sea Level Pressure 30.09 in    
Wind  
Wind Speed 1 mph (SW)    
Max Wind Speed 7 mph    
Max Gust Speed -    
Visibility 10 miles    
Events      
Averages and records for this station are not official NWS values.
T = Trace of Precipitation, MM = Missing Value Source: NWS Daily Summary

Daily Weather History Graph

Daily Weather History Graph

Search for Another Location

Airport or City:

Trip Planner

Search our weather history database for the weather conditions in past years. The results will help you decide how hot, cold, wet, or windy it might be!

Date:

Astronomy

Oct. 30, 2014 Rise Set
Actual Time 8:10 AM EDT 6:36 PM EDT
Civil Twilight 7:41 AM EDT 7:05 PM EDT
Nautical Twilight 7:08 AM EDT 7:38 PM EDT
Astronomical Twilight 6:36 AM EDT 8:10 PM EDT
Moon 2:13 PM EDT (10/30) No Moon Set
Length of Visible Light 11h 24m
Length of Day
10h 26m
Waxing Crescent, 45% of the Moon is Illuminated
Oct 30
Waxing Crescent
Oct 30
First Quarter
Nov 6
Full
Nov 14
Last Quarter
Nov 22
New

Hourly Weather History & Observations

Time (EDT) Temp. Windchill Dew Point Humidity Pressure Visibility Wind Dir Wind Speed Gust Speed Precip Events Conditions
12:14 AM 42.1 °F - 39.4 °F 90% 30.11 in 10.0 mi Calm Calm - N/A   Overcast
12:34 AM 42.6 °F - 39.7 °F 90% 30.11 in 10.0 mi Calm Calm - N/A   Overcast
12:54 AM 43.2 °F - 39.6 °F 87% 30.11 in 10.0 mi Calm Calm - N/A   Overcast
1:14 AM 43.2 °F - 39.7 °F 88% 30.11 in 10.0 mi Calm Calm - N/A   Overcast
1:35 AM 43.3 °F - 39.6 °F 87% 30.11 in 10.0 mi Calm Calm - N/A   Overcast
1:54 AM 42.4 °F - 39.7 °F 90% 30.11 in 10.0 mi Calm Calm - N/A   Overcast
2:14 AM 42.4 °F - 40.3 °F 92% 30.11 in 10.0 mi Calm Calm - N/A   Overcast
2:35 AM 42.8 °F - 40.8 °F 93% 30.11 in 10.0 mi Calm Calm - N/A   Overcast
2:54 AM 42.8 °F - 40.1 °F 90% 30.11 in 10.0 mi Calm Calm - N/A   Overcast
3:14 AM 42.8 °F - 40.1 °F 90% 30.12 in 10.0 mi Calm Calm - N/A   Overcast
3:34 AM 42.8 °F - 40.1 °F 90% 30.12 in 10.0 mi Calm Calm - N/A   Overcast
3:54 AM 42.8 °F - 40.3 °F 91% 30.12 in 10.0 mi Calm Calm - N/A   Overcast
4:14 AM 42.8 °F - 41.0 °F 93% 30.12 in 10.0 mi Calm Calm - N/A   Overcast
4:34 AM 42.6 °F - 40.8 °F 93% 30.12 in 10.0 mi Calm Calm - N/A   Overcast
4:54 AM 42.8 °F - 40.3 °F 91% 30.12 in 10.0 mi Calm Calm - N/A   Overcast
5:14 AM 42.8 °F - 40.1 °F 90% 30.12 in 10.0 mi Calm Calm - N/A   Overcast
5:34 AM 42.8 °F - 41.0 °F 93% 30.13 in 10.0 mi Calm Calm - N/A   Overcast
5:54 AM 42.8 °F - 41.0 °F 93% 30.13 in 10.0 mi Calm Calm - N/A   Overcast
6:14 AM 43.2 °F - 41.2 °F 93% 30.13 in 10.0 mi Calm Calm - N/A   Overcast
6:34 AM 42.8 °F - 41.0 °F 93% 30.13 in 10.0 mi Calm Calm - N/A   Overcast
6:54 AM 42.8 °F - 40.6 °F 92% 30.12 in 10.0 mi Calm Calm - N/A   Overcast
7:14 AM 42.8 °F - 40.5 °F 91% 30.12 in 10.0 mi Calm Calm - N/A   Overcast
7:34 AM 42.8 °F - 40.8 °F 93% 30.12 in 10.0 mi Calm Calm - N/A   Overcast
7:54 AM 42.8 °F - 40.6 °F 92% 30.13 in 10.0 mi Calm Calm - N/A   Overcast
8:15 AM 43.2 °F - 41.2 °F 93% 30.13 in 10.0 mi Calm Calm - N/A   Overcast
8:34 AM 43.0 °F - 40.6 °F 91% 30.13 in 10.0 mi Calm Calm - N/A   Overcast
8:54 AM 43.3 °F - 40.8 °F 91% 30.13 in 10.0 mi Calm Calm - N/A   Overcast
9:14 AM 43.9 °F - 40.1 °F 87% 30.13 in 10.0 mi Calm Calm - N/A   Overcast
9:34 AM 44.2 °F - 39.2 °F 82% 30.13 in 10.0 mi Calm Calm - N/A   Overcast
9:54 AM 44.6 °F - 39.0 °F 81% 30.14 in 10.0 mi Calm Calm - N/A   Overcast
10:14 AM 45.7 °F 44.4 °F 38.1 °F 75% 30.14 in 10.0 mi SSW 3.5 mph - N/A   Overcast
10:34 AM 46.0 °F 44.8 °F 38.5 °F 75% 30.14 in 10.0 mi SSW 3.5 mph - N/A   Overcast
10:54 AM 46.6 °F - 39.0 °F 75% 30.14 in 10.0 mi SW 4.6 mph - N/A   Overcast
11:14 AM 46.6 °F - 38.8 °F 74% 30.13 in 10.0 mi SW 4.6 mph - N/A   Overcast
11:34 AM 46.8 °F - 39.2 °F 75% 30.13 in 10.0 mi SW 4.6 mph - N/A   Overcast
11:54 AM 47.3 °F - 38.8 °F 72% 30.13 in 10.0 mi WSW 5.8 mph - N/A   Overcast
12:14 PM 47.3 °F - 38.8 °F 72% 30.13 in 10.0 mi SW 4.6 mph - N/A   Overcast
12:34 PM 48.0 °F - 38.5 °F 70% 30.12 in 10.0 mi SW 4.6 mph - N/A   Overcast
12:54 PM 48.2 °F - 37.9 °F 68% 30.12 in 10.0 mi WSW 5.8 mph - N/A   Overcast
1:14 PM 48.6 °F - 37.6 °F 66% 30.11 in 10.0 mi WSW 5.8 mph - N/A   Overcast
1:34 PM 48.7 °F - 38.5 °F 68% 30.10 in 10.0 mi West 4.6 mph - N/A   Overcast
1:54 PM 49.1 °F - 37.4 °F 64% 30.10 in 10.0 mi WSW 6.9 mph - N/A   Overcast
2:14 PM 49.5 °F - 37.8 °F 64% 30.09 in 10.0 mi WSW 6.9 mph - N/A   Overcast
2:34 PM 49.8 °F - 38.1 °F 64% 30.08 in 10.0 mi SW 4.6 mph - N/A   Overcast
2:55 PM 49.5 °F - 36.9 °F 62% 30.08 in 10.0 mi WSW 6.9 mph - N/A   Overcast
3:14 PM 49.1 °F - 36.9 °F 63% 30.07 in 10.0 mi SW 4.6 mph - N/A   Overcast
3:34 PM 49.1 °F - 37.2 °F 64% 30.07 in 10.0 mi SW 5.8 mph - N/A   Overcast
3:54 PM 48.7 °F - 36.7 °F 63% 30.07 in 10.0 mi SW 5.8 mph - N/A   Overcast
4:14 PM 48.6 °F - 36.9 °F 64% 30.07 in 10.0 mi WSW 5.8 mph - N/A   Overcast
4:34 PM 49.3 °F - 36.5 °F 61% 30.06 in 10.0 mi SW 6.9 mph - N/A   Overcast
4:54 PM 49.1 °F - 36.5 °F 62% 30.06 in 10.0 mi WSW 4.6 mph - N/A   Overcast
5:14 PM 49.3 °F - 36.3 °F 61% 30.06 in 10.0 mi West 4.6 mph - N/A   Overcast
5:34 PM 49.1 °F - 36.1 °F 61% 30.06 in 10.0 mi West 4.6 mph - N/A   Overcast
5:54 PM 48.7 °F - 36.3 °F 62% 30.06 in 10.0 mi SW 4.6 mph - N/A   Overcast
6:14 PM 48.6 °F - 35.8 °F 61% 30.06 in 10.0 mi SW 4.6 mph - N/A   Overcast
6:34 PM 48.0 °F - 36.3 °F 64% 30.06 in 10.0 mi Calm Calm - N/A   Overcast
6:54 PM 47.7 °F - 36.5 °F 65% 30.06 in 10.0 mi SW 3.5 mph - N/A   Overcast
7:14 PM 47.3 °F - 36.7 °F 67% 30.06 in 10.0 mi Calm Calm - N/A   Overcast
7:34 PM 47.3 °F - 36.5 °F 66% 30.06 in 10.0 mi Calm Calm - N/A   Overcast
7:54 PM 46.9 °F - 37.2 °F 69% 30.05 in 10.0 mi Calm Calm - N/A   Overcast
8:14 PM 46.8 °F - 36.5 °F 67% 30.04 in 10.0 mi Calm Calm - N/A   Overcast
8:34 PM 46.4 °F - 37.0 °F 70% 30.04 in 10.0 mi Calm Calm - N/A   Overcast
8:54 PM 47.3 °F - 35.8 °F 64% 30.04 in 10.0 mi Calm Calm - N/A   Overcast
9:14 PM 47.3 °F - 35.6 °F 64% 30.03 in 10.0 mi SSW 3.5 mph - N/A   Overcast
9:34 PM 46.8 °F - 36.5 °F 67% 30.03 in 10.0 mi SW 3.5 mph - N/A   Overcast
9:54 PM 46.4 °F 44.3 °F 36.5 °F 68% 30.03 in 10.0 mi West 4.6 mph - N/A   Overcast
10:14 PM 45.5 °F 43.2 °F 37.4 °F 73% 30.03 in 10.0 mi West 4.6 mph - N/A   Overcast
10:34 PM 45.1 °F 43.7 °F 37.4 °F 74% 30.03 in 10.0 mi WSW 3.5 mph - N/A   Overcast
10:55 PM 45.0 °F 43.5 °F 37.6 °F 75% 30.02 in 10.0 mi SW 3.5 mph - N/A   Overcast
11:14 PM 45.0 °F - 37.8 °F 76% 30.02 in 10.0 mi Calm Calm - N/A   Overcast
11:34 PM 44.8 °F - 38.1 °F 77% 30.01 in 10.0 mi Calm Calm - N/A   Overcast
11:55 PM 45.0 °F - 38.1 °F 77% 30.01 in 10.0 mi Calm Calm - N/A   Overcast